| time (UTC) | temp C | wind direction | speed KPH | gust KPH | rain 1hr cm | rain 24hr cm | rain mn cm | humidity % | barometer mb |
| 20260901095502 | 13 | 341 | 11.3 | 0.0 | 0.00 | 0.00 | 0.00 | 47 | 1022.0 |
| 20260901085501 | 13 | 343 | 12.9 | 0.0 | 0.00 | 0.00 | 0.00 | 47 | 1022.0 |
| 20260901075502 | 12 | 346 | 14.5 | 0.0 | 0.00 | 0.00 | 0.00 | 49 | 1022.0 |
| 20260901065502 | 11 | 350 | 17.7 | 0.0 | 0.00 | 0.00 | 0.00 | 51 | 1022.0 |
| 20260901055502 | 10 | 349 | 20.9 | 0.0 | 0.00 | 0.00 | 0.00 | 53 | 1022.0 |
| 20260901045502 | 10 | 345 | 22.5 | 0.0 | 0.00 | 0.00 | 0.00 | 57 | 1021.0 |
| 20260901035502 | 9 | 345 | 20.9 | 0.0 | 0.00 | 0.00 | 0.00 | 64 | 1021.0 |
| 20260901025502 | 8 | 333 | 14.5 | 0.0 | 0.00 | 0.00 | 0.00 | 73 | 1020.0 |
| 20260901015503 | 7 | 309 | 11.3 | 0.0 | 0.00 | 0.00 | 0.00 | 75 | 1019.0 |
| 20260901005502 | 7 | 299 | 11.3 | 0.0 | 0.00 | 0.00 | 0.00 | 75 | 1019.0 |
| 20260831235502 | 6 | 293 | 12.9 | 0.0 | 0.00 | 0.00 | 0.00 | 80 | 1019.0 |
| 20260831225502 | 6 | 281 | 14.5 | 0.0 | 0.00 | 0.00 | 0.00 | 80 | 1019.0 |
| 20260831215502 | 6 | 280 | 14.5 | 0.0 | 0.00 | 0.00 | 0.00 | 80 | 1019.0 |
| 20260831205502 | 6 | 284 | 14.5 | 0.0 | 0.00 | 0.00 | 0.00 | 79 | 1019.0 |
| 20260831195502 | 6 | 288 | 14.5 | 0.0 | 0.00 | 0.00 | 0.00 | 76 | 1019.0 |
| 20260831185502 | 7 | 292 | 14.5 | 0.0 | 0.00 | 0.00 | 0.00 | 73 | 1019.0 |
| 20260831175502 | 7 | 280 | 12.9 | 0.0 | 0.00 | 0.00 | 0.00 | 71 | 1019.0 |
| 20260831165503 | 7 | 277 | 12.9 | 0.0 | 0.00 | 0.00 | 0.00 | 69 | 1019.0 |
| 20260831155501 | 7 | 286 | 9.7 | 0.0 | 0.00 | 0.00 | 0.00 | 67 | 1019.0 |
| 20260831145502 | 8 | 317 | 9.7 | 0.0 | 0.00 | 0.00 | 0.00 | 66 | 1019.0 |
| 20260831135502 | 11 | 326 | 16.1 | 0.0 | 0.00 | 0.00 | 0.00 | 58 | 1018.0 |
| 20260831125502 | 12 | 325 | 20.9 | 0.0 | 0.00 | 0.00 | 0.00 | 53 | 1018.0 |
| 20260831115502 | 13 | 317 | 25.7 | 0.0 | 0.00 | 0.00 | 0.00 | 48 | 1018.0 |
| 20260831105501 | 13 | 296 | 20.9 | 0.0 | 0.00 | 0.00 | 0.00 | 47 | 1018.0 |